Reflectivity
-18 -18 -19 14 -2 21 -4 -13 13 -0 -20 -20 8 -20 32 23 9 12 -3 -20 -20 7 4 -19 -20 -20 -20 -20 -20 -20 -20 -20 -20 -20 -20 -20 -20 -20 -20 -20 -20 -20 -20 -20 -20
12 17 14 -20 17 11 -0 -15 18 -20 -20 -20 -20 -20 -4 32 15 -16 -20 -20 -20 -17 0 -13 10 -20 -20 -20 -20 -20 -20 -20 -20 -20 -20 -20 -20 -20 -20 -20 -20 -20 -20 -20 -20
12 -20 -17 -5 13 -6 16 20 -15 -20 -20 -20 -20 -20 -0 22 19 -20 -5 -20 -20 -20 12 -14 -7 -20 -20 -20 -20 -20 -20 -20 -20 -20 -20 -20 -20 -20 -20 -20 -20 -20 -20 -20 -20
16 17 -12 -15 6 16 20 10 23 20 -20 -20 -20 2 13 30 24 -20 0 4 -20 -20 15 3 -14 -20 -20 -20 -20 -20 -20 -20 -20 -20 -20 -20 -20 -20 -20 -20 -20 -20 -20 -20 -20
-9 12 -20 14 -3 16 13 -9 20 6 -17 -20 3 -5 18 22 13 8 -1 -4 -14 -20 6 13 3 -20 -20 -20 -20 -20 -20 -20 -20 -20 -20 -20 -20 -20 -20 -20 -20 -20 -20 -20 -20
-20 4 15 -5 -2 10 -9 -7 -7 -12 -3 1 -11 11 10 28 9 11 -10 11 -20 6 3 12 -3 -20 -20 -20 -20 -20 -20 -20 -20 -20 -20 -20 -20 -20 -20 -20 -20 -20 -20 -20 -20
18 -20 13 15 14 7 -4 23 13 -1 -19 -18 23 13 20 5 11 35 -20 -11 -8 -18 11 -4 -20 -20 -20 -20 -20 -20 -20 -20 -20 -20 -20 -20 -20 -20 -20 -20 -20 -20 -20 -20 -20
21 1 6 -3 -18 -5 -7 -5 22 24 29 -12 26 14 21 -11 -10 26 -20 27 -19 26 -12 -20 -20 -20 -20 -20 -20 -20 -20 -20 -20 -20 -20 -20 -20 -20 -20 -20 -20 -20 -20 -20 -20
23 11 -11 10 -15 -20 21 -15 -14 -20 27 4 22 5 16 -20 23 17 -3 25 -6 29 26 24 -20 -2 -20 -20 -20 -20 -20 -20 -20 -20 -20 -20 -20 -20 -20 -20 -20 -20 -20 -20 -20
18 -19 -20 -2 1 19 17 15 -20 -20 -20 -20 -8 -6 1 -20 15 -16 25 23 -5 27 23 24 17 -11 -20 -16 -20 -15 -20 -20 -20 -20 -20 -20 -20 -20 -20 -20 -20 -20 -20 -20 -20
-6 -1 -20 1 8 -12 -20 -20 -20 -20 26 -20 -19 -20 -20 -20 26 8 19 25 14 26 28 3 16 10 -2 -20 -20 -20 -20 -20 -20 -20 -20 -20 -20 -20 -20 -20 -20 -20 -20 -20 -20
19 20 23 -20 4 19 -20 -20 -20 -20 -20 -20 -20 27 15 -19 23 -15 -20 10 9 26 32 32 6 5 -20 -20 -20 -20 -20 -20 -20 -20 -20 -20 -20 -20 -20 -20 -20 -20 -20 -20 -20
19 16 29 5 16 -20 -20 -20 -20 -20 -20 -20 -4 27 14 8 23 -7 -20 8 -6 -5 30 39 24 14 27 -8 8 -4 -20 -20 -20 -20 -20 -20 -20 -20 -20 -20 -20 -20 -20 -20 -20
21 -3 26 25 9 -20 -20 -20 -20 -20 -20 -20 9 24 24 17 28 -20 10 15 5 -5 -2 2 -18 8 -5 25 10 9 -20 -20 -20 -20 -20 -20 -20 -20 -20 -20 -20 -20 -20 -20 -20
-20 2 -20 -20 -20 -19 -13 -20 -20 -19 -20 -1 19 12 22 1 33 -4 -4 13 9 -17 -19 -4 -10 2 26 -1 17 15 -20 -20 -20 -20 -20 -20 -20 -19 -20 -20 -20 -20 -20 -20 -20
-20 -15 -20 -20 -19 -20 -20 -18 -16 -13 -3 18 23 30 22 18 15 -6 28 -19 -16 21 17 9 -20 -5 23 10 21 -1 -20 -20 -20 -20 -20 -20 -20 -20 -20 -20 -20 -20 -20 -20 -20
-20 -16 -20 2 16 -20 -20 -20 -20 -20 -13 7 34 31 3 18 -2 4 26 18 -10 15 22 5 18 -13 -19 -10 23 -20 -20 -20 -20 -20 -20 -20 -20 -20 -20 -20 -20 -20 -20 -20 -20
-20 -20 -20 -20 -20 -20 9 -20 -20 -20 -12 38 12 12 17 7 11 -9 35 1 -12 -18 2 4 8 -17 -20 -20 -20 -20 -20 -20 -20 -20 -20 -20 -20 -20 -20 -20 -20 -20 -20 -20 -20
-20 -20 -20 -20 -20 -20 -13 -19 2 8 9 28 -4 5 -3 -18 7 37 9 -18 -20 -20 -20 -17 -7 -20 -20 -20 -20 -20 -20 -20 -20 -20 -20 -20 -20 -20 -20 -20 -20 -20 -20 -20 -20
-20 -20 -20 -20 -20 -20 -13 8 -8 1 7 -20 -18 -19 -20 -16 14 -19 -20 -20 -20 -20 -20 -20 -20 -20 -20 -20 -20 -20 -20 -20 -20 -20 -20 -20 -20 -20 -20 -20 -20 -20 -20 -20 -20
-20 -20 -20 -20 -20 -20 -20 -20 -20 -20 -20 -20 -20 -20 -20 -20 -20 -20 -20 -20 -20 -20 -20 -20 -20 -20 -20 -20 -20 -20 -20 -20 -20 -20 -20 -20 -20 -20 -20 -20 -20 -20 -20 -20 -20
-20 -20 -20 -20 -20 -20 -20 -20 -20 -20 -20 -20 -20 -20 -20 -20 -20 -20 -20 -20 -20 -20 -20 -20 -20 -20 -20 -20 -20 -20 -20 -20 -20 -20 -20 -20 -20 -20 -20 -20 -20 -20 -20 -20 -20
-20 -20 -20 -20 -20 -20 -20 -20 -20 -20 -20 -20 -20 -20 -20 -20 -20 -20 -20 -20 -20 -20 -20 -20 -20 -20 -20 -20 -20 -20 -20 -20 -20 -20 -20 -20 -20 -20 -20 -20 -20 -20 -20 -20 -20
-20 -20 -20 -20 -20 -20 -20 -20 -20 -20 -20 -20 -20 -20 -20 -20 -20 -20 -20 -20 -20 -20 -20 -20 -20 -20 -20 -20 -20 -20 -20 -20 -20 -20 -20 -20 -20 -20 -20 -20 -20 -20 -20 -20 -20
-20 -20 -4 -20 -20 -20 -20 -20 -20 -20 -20 -20 -20 -20 -20 -20 -20 -20 -20 -20 -20 -20 -20 -20 -20 -20 -20 -20 -20 -20 -20 -20 -20 -20 -20 -20 -20 -20 -20 -20 -20 -20 -20 -20 -20
-20 -20 -20 -20 -20 -20 -20 -20 -20 -20 -20 -20 -20 -20 -20 -20 -20 -20 -20 -20 -20 -20 -20 -20 -20 -20 -20 -20 -20 -20 -20 -20 -20 -20 -20 -20 -20 -20 -20 -20 -20 -20 -20 -20 -20
-5 -20 -11 -20 -20 -20 -20 -20 -20 -20 -20 -20 -20 -20 3 -20 -20 -20 -20 -20 -20 -20 -20 -20 -20 -20 -20 -20 -20 -20 -20 -20 -20 -20 -20 -20 -20 -20 -20 -20 -20 -20 -20 -20 -20
Wind_Speed
22 22 23 22 20 18 17 15 17 16 17 20 20 20 18 16 11 7 15 8 14 19 5 4 4 3 3 2 3 3 3 5 7 7 4 1 1 3 1 2 4 2 0 6 7
21 21 22 22 21 19 19 17 16 16 16 19 19 19 19 20 6 15 8 16 19 15 7 13 10 7 3 4 3 4 5 10 7 6 5 2 3 2 4 6 3 3 5 7 6
21 22 22 22 21 21 20 19 16 15 16 17 19 19 19 19 3 8 25 26 21 16 6 7 7 6 4 3 4 5 5 5 5 4 4 3 2 1 1 4 4 2 5 5 2
22 23 22 20 20 20 19 17 17 14 15 17 18 19 17 6 8 2 8 26 24 15 8 8 8 8 6 6 5 4 5 5 3 4 2 3 2 2 5 7 3 3 1 3 3
20 21 21 20 20 19 17 17 15 15 16 17 15 16 7 4 8 5 6 8 20 15 15 7 11 6 7 6 4 4 2 5 5 4 2 2 5 7 6 7 6 6 4 4 3
20 20 19 18 18 17 16 15 14 15 15 14 13 11 6 9 5 11 7 3 15 16 13 7 7 5 5 6 5 6 6 4 4 4 3 4 6 6 4 4 7 5 10 7 5
20 20 18 17 18 15 15 15 15 13 13 12 11 4 6 8 2 7 7 9 15 14 12 8 6 5 5 4 5 5 3 2 5 4 5 3 8 7 9 8 10 10 9 9 9
20 19 19 18 16 16 16 15 14 14 11 9 7 1 6 2 3 15 9 5 8 5 8 9 6 4 2 3 4 6 3 1 4 7 5 7 7 5 8 7 12 10 8 9 13
21 17 18 16 16 14 13 14 16 16 11 7 2 3 4 3 2 8 5 12 10 5 6 11 6 3 2 6 4 1 4 4 5 7 4 8 2 3 3 2 9 10 9 7 9
20 17 15 15 14 12 12 13 14 8 3 3 2 0 4 3 3 4 3 11 6 10 8 9 4 5 4 4 7 6 2 2 5 1 2 5 6 10 8 7 8 9 10 9 8
23 20 16 14 12 13 10 3 5 3 2 5 7 4 5 4 1 3 4 6 5 5 9 13 6 14 13 5 3 6 4 4 3 1 3 6 5 12 12 6 10 9 11 13 16
25 22 18 15 12 12 2 2 5 1 2 3 7 8 10 1 5 1 2 4 4 4 5 7 8 8 11 8 6 5 5 2 3 1 2 6 11 15 15 9 11 12 12 13 12
26 22 17 15 9 2 3 4 1 5 1 2 4 1 8 6 5 5 4 4 3 3 4 8 4 9 12 8 7 3 3 2 3 4 2 7 7 5 4 3 4 7 7 7 9
24 23 17 4 1 3 2 2 5 3 3 2 2 4 5 9 4 2 4 4 2 4 4 4 3 8 10 2 2 5 1 3 3 3 3 5 7 8 5 8 4 6 8 7 7
23 22 14 6 4 2 2 6 7 1 9 3 2 4 3 2 12 2 3 3 5 7 3 2 5 12 11 6 4 3 3 5 3 3 4 2 2 11 3 5 5 8 9 8 6
21 20 9 5 3 3 2 5 3 4 6 2 3 1 6 3 3 5 2 3 4 7 10 3 3 3 3 6 2 8 6 6 4 3 3 2 3 7 2 3 7 5 6 7 8
16 17 8 4 2 0 2 3 4 7 2 4 3 7 8 9 6 4 1 4 4 5 3 4 4 4 5 8 4 4 5 2 5 4 4 2 0 9 5 3 3 3 7 7 8
15 8 6 4 2 4 3 4 10 2 1 3 7 11 6 5 7 3 2 4 5 5 4 4 2 3 1 3 7 2 5 5 4 1 3 2 7 5 6 2 3 2 6 7 8
12 3 1 3 4 2 0 6 3 2 2 5 10 7 5 6 6 3 3 3 2 2 5 4 2 3 2 2 3 4 2 2 7 2 4 4 8 7 1 5 4 8 8 9 9
2 2 2 3 2 0 1 7 4 3 6 5 5 1 4 3 3 3 1 1 4 2 2 5 6 2 2 4 6 3 7 4 4 1 3 5 5 5 3 3 8 14 13 10 7
4 3 3 7 3 4 4 4 3 3 2 4 4 4 5 5 4 3 4 1 1 2 4 4 4 1 3 1 5 2 2 5 5 3 4 2 6 7 6 3 6 8 9 8 10
2 4 2 4 6 1 3 3 3 5 3 4 5 5 4 4 3 3 5 2 4 5 4 1 5 4 2 0 1 2 5 4 6 4 2 2 9 3 6 4 5 8 7 8 9
2 3 3 2 4 4 5 2 1 5 5 2 2 2 2 4 5 2 3 2 6 3 6 5 2 3 4 5 4 2 4 4 5 4 6 5 7 1 3 8 9 9 7 7 7
3 4 5 5 2 2 4 5 4 5 3 3 3 4 4 4 5 4 3 4 5 2 8 6 3 5 6 4 3 2 4 5 6 3 4 7 8 13 12 10 14 12 4 7 8
4 2 0 4 3 4 3 0 3 4 4 5 4 2 5 3 2 2 3 2 5 8 4 4 3 2 4 3 3 4 4 8 8 6 7 5 7 13 14 15 14 4 5 10 10
2 2 1 3 3 4 3 4 3 1 1 2 5 3 5 4 4 7 6 2 3 3 3 2 3 2 3 2 4 5 8 9 10 6 10 14 21 20 18 11 6 5 7 9 8
2 1 1 3 4 3 3 3 4 3 3 4 4 5 6 1 3 2 1 4 6 7 3 4 6 3 4 4 5 6 9 13 7 6 10 8 14 15 10 6 4 4 4 6 6
Wind_Direction
323 318 317 314 312 299 292 292 298 294 294 297 300 306 289 270 227 231 232 220 212 242 286 202 182 187 104 146 124 132 111 187 196 161 213 181 154 324 298 279 331 232 320 295 133
323 317 315 316 312 302 296 295 295 294 297 291 296 301 311 312 206 239 223 220 221 228 231 184 177 147 157 175 170 154 166 203 190 181 194 116 147 301 6 354 313 332 17 37 137
324 319 318 314 312 303 301 298 290 289 287 293 290 297 304 303 222 248 220 220 216 216 182 165 146 143 162 153 184 166 200 179 235 181 154 133 310 218 54 304 217 326 329 18 53
323 323 323 319 313 309 308 299 290 284 286 289 289 294 298 248 199 210 208 206 206 200 184 142 149 161 157 188 183 151 202 184 225 230 171 174 174 276 197 231 191 179 139 340 352
324 326 329 322 318 316 311 296 298 292 288 291 292 287 311 190 246 290 2 210 190 185 190 157 160 146 168 167 123 178 194 205 253 274 223 171 224 221 240 258 273 282 284 253 286
328 329 325 322 320 318 308 297 296 288 285 289 294 303 247 204 221 336 302 187 177 182 176 156 160 166 148 192 167 189 200 228 249 248 256 220 237 161 262 245 255 249 264 255 238
329 323 322 321 320 317 307 301 302 299 286 289 287 300 255 218 86 308 276 183 181 177 162 160 161 148 133 129 188 135 111 273 253 201 241 161 266 224 232 251 254 252 234 267 254
324 321 324 321 314 317 312 311 309 301 286 284 289 283 272 178 46 283 294 145 143 144 149 135 136 105 138 111 68 130 88 197 275 170 232 137 250 289 241 224 262 263 248 237 259
328 323 317 317 318 319 315 316 300 297 294 298 311 165 260 93 134 235 218 155 128 155 163 157 96 157 95 120 85 154 186 176 313 196 157 189 305 255 13 221 265 275 283 250 254
324 332 328 321 320 313 315 307 300 305 285 160 291 105 245 207 146 137 226 140 122 140 127 167 150 138 117 179 189 156 171 168 205 293 151 264 274 280 283 278 246 266 273 276 258
323 320 312 309 315 321 335 344 15 35 352 183 208 242 117 82 321 145 185 110 102 174 180 173 172 189 178 178 150 125 136 159 233 358 306 255 261 279 278 259 264 252 262 266 264
321 306 294 288 299 323 111 154 182 200 334 271 274 253 302 132 166 115 243 112 114 178 99 136 192 158 144 145 119 122 131 196 289 30 317 309 290 260 263 251 234 250 253 262 281
335 328 302 269 292 15 157 224 145 133 87 38 93 227 258 153 203 163 179 95 104 125 152 130 126 120 156 160 179 135 144 167 224 338 63 320 283 304 290 280 322 288 277 279 275
347 344 341 264 152 159 258 283 126 92 105 25 127 210 216 107 130 160 211 119 96 137 87 49 134 136 132 169 100 172 144 115 81 51 267 24 294 297 318 326 340 2 0 328 330
357 355 22 120 119 108 32 98 116 62 79 204 211 335 43 110 137 143 81 291 116 112 139 65 154 155 159 167 140 128 108 105 91 88 33 358 93 268 359 9 349 13 2 4 355
7 4 11 27 37 352 113 104 66 42 78 188 100 135 129 167 75 98 46 22 59 73 68 62 14 74 85 68 156 140 80 55 61 90 29 279 168 288 37 23 305 355 351 358 5
9 11 29 23 16 271 35 41 22 62 287 102 147 152 124 118 95 71 358 113 98 118 87 46 352 5 96 83 15 77 85 338 357 21 218 251 300 250 304 289 275 335 350 333 349
335 16 19 45 317 338 25 21 58 352 305 249 138 88 88 74 96 76 166 93 63 107 126 141 148 174 72 140 169 119 140 157 215 181 272 343 237 248 258 244 81 338 311 329 354
330 10 18 268 283 341 75 39 28 350 265 127 78 64 55 42 80 105 45 102 129 92 110 111 33 339 36 118 116 185 104 150 102 50 49 244 287 309 359 64 20 328 341 338 329
11 346 259 294 310 219 241 76 84 183 45 49 82 85 104 86 96 82 50 111 112 80 141 181 106 342 137 105 39 113 147 69 10 117 281 280 282 243 329 30 355 349 333 319 306
59 31 272 321 83 38 46 65 348 340 80 98 130 87 104 126 123 151 160 341 101 127 91 124 97 33 93 131 161 111 134 56 107 100 156 300 264 205 212 158 350 301 295 297 320
77 25 319 8 47 22 45 342 343 346 336 76 94 95 122 139 107 131 162 142 180 168 86 40 122 133 109 44 354 131 159 131 117 238 59 116 275 288 243 221 283 291 291 347 333
33 281 331 39 55 349 319 8 322 6 9 82 103 102 142 119 109 105 129 99 164 139 149 180 36 68 359 358 7 172 183 119 104 78 203 141 261 222 276 294 310 313 345 324 309
60 9 329 40 11 352 0 354 6 7 31 43 104 67 85 60 34 148 117 9 161 110 96 85 94 142 183 204 140 176 179 164 128 130 191 235 287 292 304 300 314 318 320 315 342
33 54 103 336 339 347 303 286 23 6 355 24 39 119 127 102 67 79 77 97 52 121 71 93 106 88 255 230 168 203 187 180 192 182 182 251 237 270 292 293 293 284 326 346 351
38 355 359 285 268 310 352 350 26 197 352 17 100 59 68 124 174 187 136 148 167 47 97 46 124 94 311 4 208 248 226 205 215 225 260 263 282 278 274 275 279 350 350 338 344
341 354 331 298 333 38 335 323 339 353 31 58 108 91 71 11 228 199 71 115 149 141 128 109 130 90 280 338 305 276 217 197 183 200 212 221 240 268 289 295 314 343 335 332 336